GW3985 Weather Reports


Display with metric or nautical units.
time (UTC)temp
F
wind
direction
speed
MPH
gust
MPH
rain 1hr
in
rain 24hr
in
rain mn
in
humidity
%
barometer
mb
20260510001517 70 125 0.0 1.0 0.00 0.00 0.00 29 1018.0
20260510000514 71 95 0.0 1.0 0.00 0.00 0.00 28 1018.1
20260509235515 71 136 0.0 2.0 0.00 0.00 0.00 28 1018.0
20260509234515 70 133 1.0 3.0 0.00 0.00 0.00 29 1017.9
20260509233516 70 101 0.0 1.0 0.00 0.00 0.00 28 1018.1
20260509232516 70 101 0.0 1.0 0.00 0.00 0.00 28 1018.1
20260509231517 70 101 0.0 1.0 0.00 0.00 0.00 28 1018.0
20260509230537 69 101 0.0 1.0 0.00 0.00 0.00 28 1017.9
20260509225515 69 101 0.0 1.0 0.00 0.00 0.00 29 1017.9
20260509224515 70 101 0.0 1.0 0.00 0.00 0.00 28 1017.9
20260509223516 70 94 0.0 2.0 0.00 0.00 0.00 28 1017.8
20260509222516 70 103 0.0 2.0 0.00 0.00 0.00 28 1017.7
20260509221516 71 254 0.0 1.0 0.00 0.00 0.00 28 1017.8
20260509220516 71 325 0.0 2.0 0.00 0.00 0.00 27 1017.8
20260509215537 71 243 0.0 2.0 0.00 0.00 0.00 27 1017.8
20260509214515 72 275 0.0 2.0 0.00 0.00 0.00 26 1017.7
20260509213515 74 267 1.0 5.0 0.00 0.00 0.00 25 1017.8
20260509212515 74 283 0.0 2.0 0.00 0.00 0.00 26 1018.0
20260509211516 73 210 0.0 2.0 0.00 0.00 0.00 25 1018.2
20260509210517 73 106 0.0 1.0 0.00 0.00 0.00 26 1018.2
20260509205517 73 175 0.0 1.0 0.00 0.00 0.00 25 1018.2
20260509204517 76 142 1.0 3.0 0.00 0.00 0.00 25 1018.2
20260509203515 77 198 1.0 2.0 0.00 0.00 0.00 24 1018.2
20260509202515 76 108 3.0 12.0 0.00 0.00 0.00 25 1018.2
20260509201516 77 270 1.0 3.0 0.00 0.00 0.00 22 1018.3
20260509200516 76 104 1.0 4.0 0.00 0.00 0.00 25 1018.3
20260509195516 76 289 1.0 6.0 0.00 0.00 0.00 26 1018.4
20260509194517 77 259 1.0 4.0 0.00 0.00 0.00 22 1018.5
20260509193517 76 63 2.0 6.0 0.00 0.00 0.00 23 1018.5
20260509192515 75 27 1.0 4.0 0.00 0.00 0.00 24 1018.6
20260509191535 75 105 2.0 7.0 0.00 0.00 0.00 25 1018.5
20260509190516 75 199 1.0 9.0 0.00 0.00 0.00 26 1018.6
20260509185536 75 299 1.0 3.0 0.00 0.00 0.00 26 1018.6
20260509184517 75 79 2.0 4.0 0.00 0.00 0.00 26 1018.5
20260509183517 75 21 0.0 3.0 0.00 0.00 0.00 21 1018.7
20260509182515 74 202 1.0 5.0 0.00 0.00 0.00 20 1018.8
20260509181515 73 56 0.0 5.0 0.00 0.00 0.00 21 1018.8
20260509180515 74 254 1.0 5.0 0.00 0.00 0.00 21 1018.8
20260509175516 74 159 1.0 4.0 0.00 0.00 0.00 22 1018.8
20260509174516 73 29 1.0 2.0 0.00 0.00 0.00 22 1018.9
20260509173517 73 321 1.0 5.0 0.00 0.00 0.00 23 1018.9
20260509172517 72 6 1.0 5.0 0.00 0.00 0.00 24 1019.0
20260509171535 71 28 1.0 4.0 0.00 0.00 0.00 23 1019.0
20260509170515 70 71 1.0 4.0 0.00 0.00 0.00 23 1019.1
20260509165515 70 24 1.0 5.0 0.00 0.00 0.00 23 1019.1
20260509164516 70 342 1.0 4.0 0.00 0.00 0.00 25 1019.1
20260509163516 69 284 1.0 2.0 0.00 0.00 0.00 26 1019.1
20260509162517 69 304 0.0 2.0 0.00 0.00 0.00 25 1019.0
20260509161517 68 2 1.0 3.0 0.00 0.00 0.00 26 1019.0
20260509160555 67 82 1.0 4.0 0.00 0.00 0.00 26 1018.9
20260509155515 67 55 1.0 3.0 0.00 0.00 0.00 28 1019.0
20260509154536 66 75 1.0 3.0 0.00 0.00 0.00 29 1019.1
20260509153516 65 81 0.0 3.0 0.00 0.00 0.00 29 1019.0
20260509152517 65 88 0.0 2.0 0.00 0.00 0.00 30 1019.1
20260509151517 64 228 1.0 4.0 0.00 0.00 0.00 34 1019.2
20260509150517 63 92 0.0 2.0 0.00 0.00 0.00 37 1019.3
20260509145515 62 212 0.0 2.0 0.00 0.00 0.00 38 1019.3
20260509144515 60 193 0.0 3.0 0.00 0.00 0.00 40 1019.3
20260509143516 60 251 0.0 2.0 0.00 0.00 0.00 42 1019.3
20260509142516 58 283 0.0 2.0 0.00 0.00 0.00 48 1019.3
20260509141517 56 129 1.0 3.0 0.00 0.00 0.00 50 1019.3
20260509140517 55 131 1.0 3.0 0.00 0.00 0.00 54 1019.2
20260509135554 54 135 0.0 1.0 0.00 0.00 0.00 57 1019.2
20260509134515 53 134 1.0 3.0 0.00 0.00 0.00 57 1019.1
20260509133515 53 135 1.0 2.0 0.00 0.00 0.00 59 1019.0
20260509132516 52 126 1.0 2.0 0.00 0.00 0.00 59 1018.9
20260509131516 52 127 1.0 3.0 0.00 0.00 0.00 60 1018.7
20260509130536 52 134 1.0 2.0 0.00 0.00 0.00 59 1018.6
20260509125517 52 136 2.0 4.0 0.00 0.00 0.00 59 1018.5
20260509124535 52 132 2.0 4.0 0.00 0.00 0.00 59 1018.4
20260509123515 51 130 1.0 2.0 0.00 0.00 0.00 59 1018.3
20260509122516 51 136 2.0 5.0 0.00 0.00 0.00 60 1018.2
20260509121516 51 133 2.0 4.0 0.00 0.00 0.00 60 1018.1
20260509120516 50 138 3.0 5.0 0.00 0.00 0.00 61 1018.1
20260509115516 50 138 2.0 5.0 0.00 0.00 0.00 61 1018.0
20260509114517 50 136 2.0 3.0 0.00 0.00 0.00 61 1017.8
20260509113515 51 130 2.0 5.0 0.00 0.00 0.00 61 1017.7
20260509112535 51 134 2.0 6.0 0.00 0.00 0.00 60 1017.6
20260509111516 51 133 2.0 7.0 0.00 0.00 0.00 60 1017.7
20260509110536 52 135 3.0 5.0 0.00 0.00 0.00 59 1017.7
20260509105516 51 136 2.0 6.0 0.00 0.00 0.00 60 1017.6
20260509104517 52 129 1.0 4.0 0.00 0.00 0.00 60 1017.7
20260509103537 52 137 2.0 5.0 0.00 0.00 0.00 60 1017.6
20260509102515 52 139 2.0 5.0 0.00 0.00 0.00 59 1017.6
20260509101515 52 135 2.0 5.0 0.00 0.00 0.00 59 1017.7
20260509100516 52 134 2.0 4.0 0.00 0.00 0.00 59 1017.6
20260509095516 53 138 2.0 6.0 0.00 0.00 0.00 59 1017.6
20260509094537 53 128 2.0 4.0 0.00 0.00 0.00 58 1017.6
20260509093517 53 140 3.0 6.0 0.00 0.00 0.00 58 1017.6
20260509092537 53 135 4.0 9.0 0.00 0.00 0.00 59 1017.5
20260509091515 52 134 3.0 8.0 0.00 0.00 0.00 60 1017.5
20260509090556 52 149 2.0 34.0 0.00 0.00 0.00 61 1017.6
20260509085515 52 144 0.0 1.0 0.00 0.00 0.00 61 1017.5
20260509084516 53 129 0.0 3.0 0.00 0.00 0.00 59 1017.6
20260509083516 53 135 1.0 8.0 0.00 0.00 0.00 59 1017.6
20260509082517 53 140 2.0 7.0 0.00 0.00 0.00 59 1017.6
20260509081515 53 135 3.0 9.0 0.00 0.00 0.00 60 1017.6
20260509080515 52 138 3.0 8.0 0.00 0.00 0.00 60 1017.6
20260509075515 52 139 4.0 11.0 0.00 0.00 0.00 60 1017.7
20260509074516 53 137 4.0 8.0 0.00 0.00 0.00 59 1017.7
20260509073536 53 136 4.0 10.0 0.00 0.00 0.00 58 1017.8
20260509072517 53 136 5.0 11.0 0.00 0.00 0.00 57 1017.8
20260509071517 54 136 5.0 12.0 0.00 0.00 0.00 57 1018.0
20260509070514 54 137 5.0 12.0 0.00 0.00 0.00 57 1018.1
20260509065515 54 133 4.0 12.0 0.00 0.00 0.00 56 1018.3
20260509064515 55 132 4.0 9.0 0.00 0.00 0.00 56 1018.3
20260509063516 55 131 4.0 10.0 0.00 0.00 0.00 56 1018.3
20260509062516 55 138 5.0 11.0 0.00 0.00 0.00 56 1018.5
20260509061516 54 137 5.0 10.0 0.00 0.00 0.00 58 1018.5
20260509060517 54 138 4.0 10.0 0.00 0.00 0.00 59 1018.6
20260509055515 53 134 6.0 12.0 0.00 0.00 0.00 61 1018.7
20260509054516 53 139 2.0 7.0 0.00 0.00 0.00 63 1018.9
20260509053516 53 134 3.0 7.0 0.00 0.00 0.00 63 1019.1
20260509052516 53 138 3.0 9.0 0.00 0.00 0.00 62 1019.3
20260509051516 53 141 3.0 5.0 0.00 0.00 0.00 62 1019.4
20260509050517 53 137 2.0 7.0 0.00 0.00 0.00 62 1019.4
20260509045517 54 136 1.0 3.0 0.00 0.00 0.00 60 1019.5
20260509044515 53 136 2.0 3.0 0.00 0.00 0.00 60 1019.6
20260509043515 53 138 1.0 2.0 0.00 0.00 0.00 61 1019.9
20260509042515 54 138 0.0 2.0 0.00 0.00 0.00 61 1020.0
20260509041536 54 138 1.0 2.0 0.00 0.00 0.00 61 1019.9
20260509040516 54 139 0.0 2.0 0.00 0.00 0.00 59 1020.3
20260509035516 55 131 0.0 1.0 0.00 0.00 0.00 57 1020.0
20260509034517 56 131 0.0 2.0 0.00 0.00 0.00 57 1019.7
20260509033515 56 124 0.0 1.0 0.00 0.00 0.00 57 1019.6
20260509032515 56 125 0.0 1.0 0.00 0.00 0.00 56 1019.7
20260509031536 57 136 2.0 4.0 0.00 0.00 0.00 56 1019.5
20260509030516 57 131 1.0 3.0 0.00 0.00 0.00 55 1019.6
20260509025536 57 106 0.0 1.0 0.00 0.00 0.00 54 1019.5
20260509024517 57 131 0.0 1.0 0.00 0.00 0.00 54 1019.3
20260509023517 58 130 0.0 1.0 0.00 0.00 0.00 54 1019.1
20260509022515 59 117 1.0 2.0 0.00 0.00 0.00 52 1018.9
20260509021515 59 109 1.0 2.0 0.00 0.00 0.00 51 1018.8
20260509020516 60 112 0.0 1.0 0.00 0.00 0.00 51 1018.9
20260509015516 61 75 0.0 1.0 0.00 0.00 0.00 49 1018.8
20260509014516 61 96 0.0 1.0 0.00 0.00 0.00 48 1018.7
20260509013517 62 0.0 0.0 0.00 0.00 0.00 47 1018.9
20260509012514 62 99 0.0 1.0 0.00 0.00 0.00 46 1018.6
20260509011515 63 94 1.0 2.0 0.00 0.00 0.00 44 1018.7
20260509010515 65 118 0.0 2.0 0.00 0.00 0.00 43 1018.5
20260509005516 66 94 1.0 2.0 0.00 0.00 0.00 42 1018.5
20260509004516 66 146 0.0 1.0 0.00 0.00 0.00 41 1018.7
20260509003517 67 244 0.0 1.0 0.00 0.00 0.00 40 1018.5
20260509002517 69 250 0.0 2.0 0.00 0.00 0.00 38 1018.4